| time (UTC) | temp C | wind direction | speed KPH | gust KPH | rain 1hr cm | rain 24hr cm | rain mn cm | humidity % | barometer mb |
| 20260508202700 | 25 | 306 | 27.4 | 38.6 | 0.00 | 0.00 | 0.00 | 25 | 1017.7 |
| 20260508201800 | 24 | 310 | 30.6 | 53.1 | 0.00 | 0.00 | 0.00 | 26 | 1017.8 |
| 20260508200900 | 24 | 311 | 33.8 | 53.1 | 0.00 | 0.00 | 0.00 | 25 | 1017.8 |
| 20260508200000 | 24 | 303 | 29.0 | 45.1 | 0.00 | 0.00 | 0.00 | 24 | 1018.0 |
| 20260508195400 | 24 | 300 | 27.4 | 43.5 | 0.00 | 0.00 | 0.00 | 26 | 1018.1 |
| 20260508194521 | 24 | 292 | 27.4 | 40.2 | 0.00 | 0.00 | 0.00 | 25 | 1018.1 |
| 20260508193621 | 25 | 295 | 25.7 | 41.8 | 0.00 | 0.00 | 0.00 | 26 | 1018.1 |
| 20260508192721 | 24 | 302 | 22.5 | 41.8 | 0.00 | 0.00 | 0.00 | 26 | 1018.0 |
| 20260508191800 | 24 | 306 | 25.7 | 40.2 | 0.00 | 0.00 | 0.00 | 26 | 1018.4 |
| 20260508190900 | 24 | 307 | 22.5 | 35.4 | 0.00 | 0.00 | 0.00 | 26 | 1018.4 |
| 20260508190000 | 24 | 307 | 19.3 | 33.8 | 0.00 | 0.00 | 0.00 | 27 | 1018.7 |
| 20260508185400 | 25 | 303 | 20.9 | 32.2 | 0.00 | 0.00 | 0.00 | 28 | 1018.7 |
| 20260508184500 | 13 | 135 | 1.6 | 3.2 | 0.00 | 0.00 | 0.00 | 53 | 1018.8 |
| 20260508183621 | 13 | 135 | 1.6 | 3.2 | 0.00 | 0.00 | 0.00 | 53 | 1018.9 |
| 20260508182700 | 13 | 135 | 1.6 | 3.2 | 0.00 | 0.00 | 0.00 | 53 | 1019.0 |
| 20260508181800 | 13 | 135 | 1.6 | 3.2 | 0.00 | 0.00 | 0.00 | 53 | 1019.1 |
| 20260508180900 | 13 | 135 | 1.6 | 3.2 | 0.00 | 0.00 | 0.00 | 53 | 1019.1 |
| 20260508180000 | 13 | 135 | 1.6 | 3.2 | 0.00 | 0.00 | 0.00 | 53 | 1019.1 |
| 20260508175421 | 13 | 135 | 1.6 | 3.2 | 0.00 | 0.00 | 0.00 | 53 | 1019.1 |
| 20260508174500 | 13 | 135 | 1.6 | 3.2 | 0.00 | 0.00 | 0.00 | 53 | 1019.2 |
| 20260508173600 | 13 | 135 | 1.6 | 3.2 | 0.00 | 0.00 | 0.00 | 53 | 1019.2 |
| 20260508172721 | 13 | 135 | 1.6 | 3.2 | 0.00 | 0.00 | 0.00 | 53 | 1019.2 |
| 20260508171800 | 13 | 135 | 1.6 | 3.2 | 0.00 | 0.00 | 0.00 | 53 | 1019.2 |
| 20260508170900 | 13 | 135 | 1.6 | 3.2 | 0.00 | 0.00 | 0.00 | 53 | 1019.3 |
| 20260508170021 | 13 | 135 | 1.6 | 3.2 | 0.00 | 0.00 | 0.00 | 53 | 1019.3 |
| 20260508165400 | 13 | 135 | 1.6 | 3.2 | 0.00 | 0.00 | 0.00 | 53 | 1019.3 |
| 20260508164521 | 13 | 135 | 1.6 | 3.2 | 0.00 | 0.00 | 0.00 | 53 | 1019.3 |
| 20260508163600 | 13 | 135 | 1.6 | 3.2 | 0.00 | 0.00 | 0.00 | 53 | 1019.3 |
| 20260508162700 | 13 | 135 | 1.6 | 3.2 | 0.00 | 0.00 | 0.00 | 53 | 1019.2 |
| 20260508133602 | 8 | 0 | 0.0 | 0.0 | 0.00 | 0.00 | 0.00 | 50 | 1018.7 |
| 20260508132702 | 8 | 0 | 0.0 | 6.4 | 0.00 | 0.00 | 0.00 | 50 | 1018.7 |
| 20260508131823 | 8 | 134 | 1.6 | 6.4 | 0.00 | 0.00 | 0.00 | 50 | 1018.6 |
| 20260508130903 | 7 | 134 | 4.8 | 6.4 | 0.00 | 0.00 | 0.00 | 51 | 1018.5 |
| 20260508130003 | 7 | 134 | 1.6 | 3.2 | 0.00 | 0.00 | 0.00 | 52 | 1018.4 |
| 20260508125402 | 7 | 134 | 1.6 | 3.2 | 0.00 | 0.00 | 0.00 | 52 | 1018.3 |
| 20260508124503 | 8 | 134 | 0.0 | 3.2 | 0.00 | 0.00 | 0.00 | 52 | 1018.2 |
| 20260508123602 | 8 | 134 | 1.6 | 3.2 | 0.00 | 0.00 | 0.00 | 52 | 1018.1 |
| 20260508122702 | 8 | 134 | 1.6 | 3.2 | 0.00 | 0.00 | 0.00 | 52 | 1018.1 |
| 20260508121803 | 8 | 134 | 1.6 | 3.2 | 0.00 | 0.00 | 0.00 | 52 | 1017.8 |
| 20260508120902 | 8 | 134 | 1.6 | 3.2 | 0.00 | 0.00 | 0.00 | 53 | 1017.8 |
| 20260508120003 | 8 | 0 | 0.0 | 0.0 | 0.00 | 0.00 | 0.00 | 53 | 1017.8 |
| 20260508115403 | 8 | 134 | 0.0 | 1.6 | 0.00 | 0.00 | 0.00 | 54 | 1017.7 |
| 20260508114503 | 8 | 134 | 0.0 | 6.4 | 0.00 | 0.00 | 0.00 | 54 | 1017.7 |
| 20260508113602 | 8 | 134 | 1.6 | 6.4 | 0.00 | 0.00 | 0.00 | 54 | 1017.7 |
| 20260508112702 | 8 | 134 | 1.6 | 6.4 | 0.00 | 0.00 | 0.00 | 54 | 1017.5 |
| 20260508111803 | 8 | 134 | 1.6 | 8.0 | 0.00 | 0.00 | 0.00 | 54 | 1017.5 |
| 20260508110903 | 8 | 135 | 4.8 | 8.0 | 0.00 | 0.00 | 0.00 | 53 | 1017.5 |
| 20260508110003 | 8 | 141 | 4.8 | 8.0 | 0.00 | 0.00 | 0.00 | 54 | 1017.4 |
| 20260508105402 | 8 | 142 | 3.2 | 6.4 | 0.00 | 0.00 | 0.00 | 55 | 1017.3 |
| 20260508104503 | 8 | 142 | 1.6 | 8.0 | 0.00 | 0.00 | 0.00 | 56 | 1017.2 |
| 20260508103624 | 9 | 142 | 4.8 | 8.0 | 0.00 | 0.00 | 0.00 | 56 | 1017.2 |
| 20260508102702 | 9 | 151 | 4.8 | 8.0 | 0.00 | 0.00 | 0.00 | 56 | 1017.1 |
| 20260508101802 | 9 | 180 | 4.8 | 8.0 | 0.00 | 0.00 | 0.00 | 57 | 1017.1 |
| 20260508100902 | 10 | 69 | 1.6 | 8.0 | 0.00 | 0.00 | 0.00 | 57 | 1017.0 |
| 20260508100003 | 10 | 65 | 3.2 | 8.0 | 0.00 | 0.00 | 0.00 | 56 | 1017.0 |
| 20260508095424 | 11 | 57 | 4.8 | 11.3 | 0.00 | 0.00 | 0.00 | 56 | 1017.0 |
| 20260508094503 | 11 | 270 | 3.2 | 11.3 | 0.00 | 0.00 | 0.00 | 56 | 1016.9 |
| 20260508093603 | 11 | 283 | 8.0 | 11.3 | 0.00 | 0.00 | 0.00 | 56 | 1016.8 |
| 20260508092703 | 10 | 292 | 6.4 | 11.3 | 0.00 | 0.00 | 0.00 | 56 | 1016.8 |
| 20260508091803 | 10 | 306 | 0.0 | 8.0 | 0.00 | 0.00 | 0.00 | 56 | 1016.9 |
| 20260508090924 | 10 | 306 | 1.6 | 8.0 | 0.00 | 0.00 | 0.00 | 56 | 1016.8 |
| 20260508090003 | 10 | 360 | 4.8 | 8.0 | 0.00 | 0.00 | 0.00 | 58 | 1016.7 |
| 20260508085424 | 10 | 81 | 1.6 | 6.4 | 0.00 | 0.00 | 0.00 | 58 | 1016.7 |
| 20260508084502 | 10 | 0 | 0.0 | 0.0 | 0.00 | 0.00 | 0.00 | 57 | 1016.6 |
| 20260508083624 | 10 | 94 | 0.0 | 6.4 | 0.00 | 0.00 | 0.00 | 57 | 1016.7 |
| 20260508082703 | 10 | 94 | 3.2 | 6.4 | 0.00 | 0.00 | 0.00 | 58 | 1016.8 |
| 20260508081802 | 10 | 94 | 0.0 | 3.2 | 0.00 | 0.00 | 0.00 | 58 | 1016.8 |
| 20260508080902 | 10 | 0 | 0.0 | 3.2 | 0.00 | 0.00 | 0.00 | 58 | 1016.8 |
| 20260508080003 | 10 | 94 | 0.0 | 3.2 | 0.00 | 0.00 | 0.00 | 57 | 1016.8 |
| 20260508075402 | 11 | 93 | 3.2 | 6.4 | 0.00 | 0.00 | 0.00 | 56 | 1016.7 |
| 20260508074524 | 11 | 84 | 3.2 | 8.0 | 0.00 | 0.00 | 0.00 | 55 | 1016.8 |
| 20260508073603 | 12 | 10 | 1.6 | 3.2 | 0.00 | 0.00 | 0.00 | 53 | 1016.8 |
| 20260508072702 | 12 | 337 | 3.2 | 8.0 | 0.00 | 0.00 | 0.00 | 55 | 1016.6 |
| 20260508071803 | 11 | 318 | 4.8 | 8.0 | 0.00 | 0.00 | 0.00 | 56 | 1016.8 |
| 20260508070902 | 11 | 338 | 6.4 | 9.7 | 0.00 | 0.00 | 0.00 | 56 | 1016.8 |
| 20260508070003 | 11 | 295 | 3.2 | 9.7 | 0.00 | 0.00 | 0.00 | 57 | 1016.7 |
| 20260508065403 | 11 | 294 | 3.2 | 9.7 | 0.00 | 0.00 | 0.00 | 57 | 1016.7 |
| 20260508064503 | 11 | 313 | 6.4 | 9.7 | 0.00 | 0.00 | 0.00 | 57 | 1016.8 |
| 20260508063603 | 12 | 73 | 1.6 | 8.0 | 0.00 | 0.00 | 0.00 | 57 | 1016.7 |
| 20260508062703 | 12 | 117 | 1.6 | 8.0 | 0.00 | 0.00 | 0.00 | 57 | 1016.6 |
| 20260508061824 | 12 | 117 | 0.0 | 1.6 | 0.00 | 0.00 | 0.00 | 56 | 1016.5 |
| 20260508060903 | 12 | 0 | 0.0 | 0.0 | 0.00 | 0.00 | 0.00 | 55 | 1016.3 |
| 20260508060024 | 12 | 117 | 0.0 | 3.2 | 0.00 | 0.00 | 0.00 | 54 | 1016.2 |
| 20260508055403 | 12 | 117 | 0.0 | 1.6 | 0.00 | 0.00 | 0.00 | 54 | 1016.2 |
| 20260508054502 | 12 | 117 | 0.0 | 3.2 | 0.00 | 0.00 | 0.00 | 54 | 1016.2 |
| 20260508053603 | 12 | 50 | 3.2 | 6.4 | 0.00 | 0.00 | 0.00 | 54 | 1016.2 |
| 20260508052702 | 12 | 0 | 0.0 | 0.0 | 0.00 | 0.00 | 0.00 | 54 | 1016.1 |
| 20260508051824 | 13 | 0 | 0.0 | 0.0 | 0.00 | 0.00 | 0.00 | 52 | 1016.1 |
| 20260508050903 | 13 | 26 | 0.0 | 6.4 | 0.00 | 0.00 | 0.00 | 51 | 1016.1 |
| 20260508050003 | 13 | 23 | 1.6 | 6.4 | 0.00 | 0.00 | 0.00 | 51 | 1016.1 |
| 20260508045403 | 14 | 9 | 0.0 | 3.2 | 0.00 | 0.00 | 0.00 | 50 | 1016.0 |
| 20260508044503 | 14 | 277 | 0.0 | 1.6 | 0.00 | 0.00 | 0.00 | 49 | 1016.0 |
| 20260508043603 | 15 | 277 | 1.6 | 3.2 | 0.00 | 0.00 | 0.00 | 49 | 1016.1 |
| 20260508042703 | 15 | 276 | 1.6 | 3.2 | 0.00 | 0.00 | 0.00 | 48 | 1016.1 |
| 20260508041803 | 15 | 276 | 0.0 | 3.2 | 0.00 | 0.00 | 0.00 | 49 | 1016.1 |
| 20260508040903 | 15 | 270 | 1.6 | 6.4 | 0.00 | 0.00 | 0.00 | 47 | 1016.1 |
| 20260508040024 | 15 | 257 | 0.0 | 1.6 | 0.00 | 0.00 | 0.00 | 45 | 1016.0 |
| 20260508035403 | 16 | 257 | 0.0 | 6.4 | 0.00 | 0.00 | 0.00 | 45 | 1016.0 |
| 20260508034503 | 16 | 252 | 3.2 | 8.0 | 0.00 | 0.00 | 0.00 | 42 | 1015.9 |
| 20260508033624 | 16 | 243 | 1.6 | 3.2 | 0.00 | 0.00 | 0.00 | 42 | 1015.8 |
| 20260508032724 | 17 | 0 | 0.0 | 0.0 | 0.00 | 0.00 | 0.00 | 40 | 1015.9 |
| 20260508031803 | 17 | 242 | 1.6 | 6.4 | 0.00 | 0.00 | 0.00 | 38 | 1015.8 |
| 20260508030902 | 17 | 234 | 3.2 | 6.4 | 0.00 | 0.00 | 0.00 | 37 | 1015.5 |
| 20260508030003 | 17 | 228 | 3.2 | 6.4 | 0.00 | 0.00 | 0.00 | 37 | 1015.4 |
| 20260508025403 | 18 | 197 | 0.0 | 1.6 | 0.00 | 0.00 | 0.00 | 38 | 1015.5 |
| 20260508024503 | 19 | 0 | 0.0 | 3.2 | 0.00 | 0.00 | 0.00 | 36 | 1015.4 |
| 20260508023624 | 20 | 197 | 1.6 | 3.2 | 0.00 | 0.00 | 0.00 | 33 | 1015.4 |
| 20260508022724 | 21 | 197 | 0.0 | 3.2 | 0.00 | 0.00 | 0.00 | 32 | 1015.3 |
| 20260508021824 | 22 | 0 | 0.0 | 0.0 | 0.00 | 0.00 | 0.00 | 28 | 1015.2 |
| 20260508020924 | 23 | 0 | 0.0 | 0.0 | 0.00 | 0.00 | 0.00 | 26 | 1015.2 |
| 20260508020003 | 24 | 0 | 0.0 | 0.0 | 0.00 | 0.00 | 0.00 | 27 | 1015.1 |
| 20260508015402 | 24 | 0 | 0.0 | 0.0 | 0.00 | 0.00 | 0.00 | 25 | 1015.0 |
| 20260508014524 | 23 | 0 | 0.0 | 0.0 | 0.00 | 0.00 | 0.00 | 25 | 1015.0 |
| 20260508013624 | 24 | 0 | 0.0 | 0.0 | 0.00 | 0.00 | 0.00 | 26 | 1015.1 |
| 20260508012702 | 24 | 0 | 0.0 | 0.0 | 0.00 | 0.00 | 0.00 | 25 | 1015.1 |
| 20260508011803 | 23 | 292 | 1.6 | 17.7 | 0.00 | 0.00 | 0.00 | 26 | 1015.1 |
| 20260508010903 | 23 | 292 | 1.6 | 17.7 | 0.00 | 0.00 | 0.00 | 26 | 1015.2 |
| 20260508010003 | 23 | 292 | 1.6 | 17.7 | 0.00 | 0.00 | 0.00 | 26 | 1015.4 |
| 20260508005403 | 23 | 292 | 1.6 | 17.7 | 0.00 | 0.00 | 0.00 | 26 | 1015.4 |
| 20260508004503 | 23 | 292 | 1.6 | 17.7 | 0.00 | 0.00 | 0.00 | 26 | 1015.4 |
| 20260508003624 | 23 | 292 | 1.6 | 17.7 | 0.00 | 0.00 | 0.00 | 26 | 1015.4 |
| 20260508002703 | 23 | 292 | 1.6 | 17.7 | 0.00 | 0.00 | 0.00 | 26 | 1015.5 |
| 20260508001824 | 23 | 308 | 11.3 | 17.7 | 0.00 | 0.00 | 0.00 | 26 | 1015.5 |
| 20260508000902 | 23 | 285 | 6.4 | 12.9 | 0.00 | 0.00 | 0.00 | 26 | 1015.6 |
| 20260508000003 | 23 | 285 | 11.3 | 20.9 | 0.00 | 0.00 | 0.00 | 25 | 1015.6 |
| 20260507235424 | 24 | 277 | 9.7 | 30.6 | 0.00 | 0.00 | 0.00 | 25 | 1015.7 |
| 20260507234503 | 25 | 299 | 11.3 | 30.6 | 0.00 | 0.00 | 0.00 | 26 | 1015.8 |
| 20260507233603 | 24 | 308 | 12.9 | 25.7 | 0.00 | 0.00 | 0.00 | 27 | 1015.8 |
| 20260507232702 | 25 | 307 | 11.3 | 20.9 | 0.00 | 0.00 | 0.00 | 26 | 1015.9 |
| 20260507231803 | 25 | 332 | 12.9 | 25.7 | 0.00 | 0.00 | 0.00 | 25 | 1016.0 |
| 20260507230903 | 24 | 303 | 9.7 | 25.7 | 0.00 | 0.00 | 0.00 | 26 | 1016.1 |
| 20260507230003 | 23 | 268 | 14.5 | 25.7 | 0.00 | 0.00 | 0.00 | 24 | 1016.2 |
| 20260507225402 | 24 | 290 | 11.3 | 22.5 | 0.00 | 0.00 | 0.00 | 25 | 1016.2 |
| 20260507224524 | 24 | 293 | 6.4 | 19.3 | 0.00 | 0.00 | 0.00 | 24 | 1016.3 |
| 20260507223603 | 25 | 312 | 8.0 | 17.7 | 0.00 | 0.00 | 0.00 | 23 | 1016.4 |
| 20260507222703 | 24 | 275 | 9.7 | 19.3 | 0.00 | 0.00 | 0.00 | 25 | 1016.6 |
| 20260507221803 | 24 | 131 | 9.7 | 17.7 | 0.00 | 0.00 | 0.00 | 24 | 1016.7 |
| 20260507220903 | 25 | 171 | 8.0 | 17.7 | 0.00 | 0.00 | 0.00 | 23 | 1016.7 |
| 20260507220003 | 25 | 231 | 6.4 | 17.7 | 0.00 | 0.00 | 0.00 | 23 | 1016.8 |
| 20260507215403 | 24 | 219 | 9.7 | 17.7 | 0.00 | 0.00 | 0.00 | 23 | 1017.0 |
| 20260507214503 | 26 | 153 | 3.2 | 12.9 | 0.00 | 0.00 | 0.00 | 23 | 1017.1 |
| 20260507213603 | 25 | 62 | 6.4 | 12.9 | 0.00 | 0.00 | 0.00 | 23 | 1017.1 |
| 20260507212703 | 25 | 55 | 3.2 | 11.3 | 0.00 | 0.00 | 0.00 | 24 | 1017.4 |
| 20260507211802 | 24 | 68 | 4.8 | 14.5 | 0.00 | 0.00 | 0.00 | 23 | 1017.5 |
| 20260507210903 | 24 | 132 | 4.8 | 14.5 | 0.00 | 0.00 | 0.00 | 25 | 1017.6 |
| 20260507210003 | 25 | 113 | 8.0 | 14.5 | 0.00 | 0.00 | 0.00 | 23 | 1017.7 |
| 20260507205403 | 24 | 111 | 8.0 | 17.7 | 0.00 | 0.00 | 0.00 | 25 | 1017.8 |
| 20260507204503 | 23 | 108 | 8.0 | 17.7 | 0.00 | 0.00 | 0.00 | 25 | 1018.0 |
| 20260507203603 | 23 | 107 | 9.7 | 17.7 | 0.00 | 0.00 | 0.00 | 24 | 1018.1 |